Volver al catálogo

HYPSO-1

ActivoCienciaPO
NORAD 51053·PAYLOAD·🇳🇴 Norway

Lanzado Jan 13, 2022 desde Cape Canaveral Space Force Station

Loading…

Próximos Pases (próximas 24 horas)

TLE

ActualizadoSource: Space-Track

Época: Sep 13, 2026, 21:42 UTC

1 51053U 22002BX  26256.90460767  .00144244  00000-0  55291-3 0  9994
2 51053  97.2720 342.5608 0003749 266.7223  93.3620 15.87039366260900

Sigue HYPSO-1 en tiempo real con AllMySat

Download on the App Store